Date,TemperatureHighF,TemperatureAvgF,TemperatureLowF,DewpointHighF,DewpointAvgF,DewpointLowF,HumidityHigh,HumidityAvg,HumidityLow,PressureMaxIn,PressureMinIn,WindSpeedMaxMPH,WindSpeedAvgMPH,GustSpeedMaxMPH,PrecipitationSumIn
2013-1-1,34.2,26.9,17.5,25.4,17.5,9.6,76,67,56,30.11,29.96,12,4,12,0.00
2013-1-2,36.4,24.8,14.0,17.0,11.9,3.7,70,58,42,30.20,30.09,12,2,12,0.00
2013-1-3,35.5,24.5,13.9,16.1,9.9,4.2,66,54,43,30.19,30.00,11,4,11,0.00
2013-1-4,40.7,30.3,23.6,18.7,12.4,8.2,56,47,39,30.02,29.94,13,3,13,0.00
2013-1-5,41.0,27.9,18.2,22.7,14.8,8.3,69,58,45,30.14,29.98,9,2,9,0.00
2013-1-6,41.0,30.7,18.2,19.7,15.4,8.6,72,54,41,29.98,29.74,12,2,12,0.00
2013-1-7,42.8,32.8,22.7,24.5,19.3,12.4,70,58,46,29.83,29.56,9,2,9,0.00
2013-1-8,47.3,39.1,30.1,24.6,19.5,14.4,57,46,28,29.90,29.57,20,4,20,0.00
2013-1-9,56.7,39.6,28.6,30.0,22.7,16.1,64,51,32,29.89,29.60,7,2,7,0.00
2013-1-10,47.0,32.6,20.5,29.5,21.7,12.5,78,65,44,29.61,29.42,10,2,10,0.00
2013-1-11,20.5,12.8,10.4,12.9,7.1,3.8,82,78,68,30.00,29.61,11,3,11,0.00
2013-1-12,19.1,11.5,3.4,9.5,4.5,-2.5,79,74,63,30.02,29.98,8,2,8,0.00
2013-1-13,21.1,12.6,5.6,10.1,4.3,-0.7,77,69,61,30.08,30.00,10,2,10,0.00
2013-1-14,20.2,14.1,8.5,8.1,4.3,0.7,72,65,55,30.04,29.89,12,5,12,0.00
2013-1-15,31.7,25.9,18.4,20.9,16.5,8.1,76,67,62,30.02,29.89,17,6,17,0.00
2013-1-16,42.5,32.3,25.7,24.7,19.4,15.8,67,59,48,30.19,29.97,13,4,13,0.00
2013-1-17,42.3,32.3,24.1,25.4,19.4,15.0,69,59,49,30.22,29.91,11,4,11,0.00
2013-1-18,51.7,38.7,32.8,26.6,21.3,18.2,56,50,34,29.92,29.78,13,3,13,0.00
2013-1-19,41.4,33.6,22.9,26.9,20.2,16.2,78,59,44,30.13,29.91,9,2,9,0.00
2013-1-20,32.6,24.1,16.7,21.3,16.0,9.8,75,71,61,30.32,29.99,10,2,10,0.00
2013-1-21,31.5,20.5,13.9,19.6,12.5,7.9,79,71,59,30.17,29.90,8,1,8,0.00
2013-1-22,46.4,30.9,12.6,26.2,18.3,7.0,81,61,44,29.97,29.90,8,2,8,0.00
2013-1-23,29.2,23.4,18.0,17.5,14.7,11.6,76,69,60,30.08,29.81,7,1,7,0.00
2013-1-24,53.8,34.8,19.1,31.3,21.0,12.7,77,59,37,29.99,29.75,13,2,13,0.00
2013-1-25,50.2,35.6,22.3,32.6,24.2,15.2,79,64,49,29.98,29.81,7,2,7,0.00
2013-1-26,54.9,41.7,31.7,32.5,27.0,22.7,69,57,39,29.81,29.59,7,1,7,0.00
2013-1-27,36.9,32.3,27.9,32.5,27.6,21.5,88,82,70,29.74,29.60,6,0,6,0.00
2013-1-28,37.8,30.4,20.7,29.9,22.7,13.5,87,74,44,29.74,29.63,10,2,10,0.00
2013-1-29,29.2,20.5,7.7,20.4,11.8,0.0,78,69,55,30.06,29.61,18,3,18,0.00
2013-1-30,33.7,23.7,9.2,26.2,17.4,2.9,86,77,65,29.94,29.70,12,2,12,0.00
2013-1-31,29.2,14.8,4.0,23.1,8.7,-0.9,85,77,68,30.10,29.89,7,1,7,0.00
2013-2-1,45.5,36.8,28.6,34.0,27.4,22.4,80,69,52,30.09,29.87,10,2,10,0.00
2013-2-2,50.0,35.8,24.1,31.3,23.8,17.3,79,63,39,30.17,30.04,13,3,13,0.00
2013-2-3,52.2,37.2,28.6,28.7,22.9,20.2,70,57,29,30.04,29.79,11,3,11,0.00
2013-2-4,51.8,39.9,30.4,27.6,24.3,20.9,70,55,34,29.81,29.68,16,3,16,0.00
2013-2-5,51.3,40.2,30.8,33.3,26.7,21.8,71,59,47,29.83,29.64,8,2,8,0.00
2013-2-6,50.2,37.6,27.7,27.5,21.0,16.0,74,53,30,29.96,29.65,11,2,11,0.00
2013-2-7,45.0,32.5,21.6,25.7,20.7,15.2,79,63,43,29.98,29.79,5,1,5,0.00
2013-2-8,44.8,33.1,25.0,25.6,21.4,17.4,75,63,42,29.84,29.75,5,1,5,0.00
2013-2-9,41.6,31.5,19.6,29.3,22.2,14.3,85,69,51,29.80,29.67,7,1,7,0.00
2013-2-10,31.5,26.6,15.5,26.1,19.8,9.6,87,76,60,30.02,29.80,10,2,10,0.00
2013-2-11,34.4,20.9,8.8,19.8,11.7,3.5,81,68,51,30.00,29.82,12,4,12,0.00
2013-2-12,43.6,29.4,18.9,24.3,15.6,9.0,66,57,45,29.95,29.77,12,4,12,0.00
2013-2-13,48.6,34.9,28.4,32.6,23.1,15.0,86,63,39,30.02,29.75,17,4,17,0.00
2013-2-14,35.6,29.8,25.9,24.3,19.4,16.7,83,66,46,30.20,30.02,13,3,13,0.00
2013-2-15,44.3,31.7,24.1,30.8,23.4,19.4,84,72,52,30.23,30.01,10,2,10,0.00
2013-2-16,52.2,37.1,26.8,29.4,22.9,18.2,72,58,39,30.02,29.63,12,4,12,0.00
2013-2-17,45.2,36.4,30.2,27.9,23.0,18.6,72,59,35,29.86,29.55,13,4,13,0.00
2013-2-18,40.0,29.1,21.1,24.4,19.3,12.8,81,67,52,30.00,29.86,9,1,9,0.00
2013-2-19,31.5,20.9,12.6,20.5,13.2,6.7,92,72,59,29.91,29.67,6,1,6,0.00
2013-2-20,31.7,24.0,16.0,21.2,15.5,10.6,99,70,55,29.80,29.69,6,1,6,0.00
2013-2-21,41.4,29.5,20.9,28.1,20.4,14.5,86,70,47,29.85,29.76,5,1,5,0.00
2013-2-22,43.0,38.5,34.9,14.7,7.6,-12.7,37,28,9,29.67,29.61,11,3,11,0.00
2013-2-24,70.2,69.8,63.7,49.8,45.9,43.9,56,43,39,29.92,29.90,5,2,5,0.00
2013-2-25,71.8,64.7,37.4,45.6,38.4,16.8,51,38,27,29.90,29.67,12,4,12,0.00
2013-2-26,45.7,37.3,27.5,21.3,17.4,14.9,62,45,31,30.10,29.78,14,3,14,0.00
2013-2-27,48.1,33.3,22.7,23.4,17.4,14.0,72,54,30,30.11,30.01,10,2,10,0.00
2013-2-28,50.0,37.5,27.7,24.2,17.6,14.5,58,45,28,30.14,30.02,15,3,15,0.00
2013-3-1,62.3,44.7,27.4,32.5,25.0,14.9,63,48,30,30.13,30.01,16,3,16,0.00
2013-3-2,63.9,48.2,34.9,33.0,28.8,23.0,65,49,29,30.08,29.74,15,3,15,0.00
2013-3-3,56.9,39.2,28.8,35.3,27.9,16.0,87,65,41,29.78,29.43,19,2,19,0.00
2013-3-4,33.1,24.7,15.1,16.9,13.7,6.4,75,63,45,30.22,29.78,19,5,19,0.00
2013-3-5,36.5,21.4,8.6,23.9,13.4,2.3,82,71,56,30.20,29.93,6,1,6,0.00
2013-3-6,38.3,27.3,16.4,27.3,19.9,11.2,83,74,61,29.93,29.62,5,1,5,0.00
2013-3-7,55.8,39.1,27.0,31.7,24.6,16.8,83,61,23,29.91,29.67,10,2,10,0.00
2013-3-8,48.6,37.2,28.8,31.1,26.9,21.3,79,67,49,29.90,29.74,7,1,7,0.00
2013-3-9,50.4,35.1,23.9,29.0,20.2,14.6,85,58,28,30.11,29.80,14,2,14,0.00
2013-3-10,59.6,39.3,20.0,27.9,19.3,12.1,77,49,22,30.11,29.84,13,2,13,0.00
2013-3-11,48.8,41.8,33.1,28.2,23.9,16.1,62,49,34,30.10,29.84,16,4,16,0.00
2013-3-12,44.5,36.5,31.7,22.7,20.4,18.9,60,52,42,29.93,29.91,8,1,8,0.00
2013-3-13,70.4,50.9,30.4,33.7,26.2,19.1,65,42,21,29.99,29.91,16,4,16,0.00
2013-3-14,69.8,52.4,35.8,37.3,28.8,23.9,66,43,22,30.03,29.80,16,2,16,0.00
2013-3-15,67.9,51.7,36.2,32.3,27.0,18.8,69,41,17,29.97,29.75,17,3,17,0.00
2013-3-16,52.4,36.7,26.1,31.3,25.6,20.4,81,66,42,29.96,29.58,8,2,9,0.00
2013-3-17,45.2,34.3,24.5,30.8,18.8,9.6,82,57,24,29.82,29.39,19,4,22,0.00
2013-3-18,46.1,30.5,15.1,19.7,11.4,6.1,72,48,20,29.86,29.70,19,3,19,0.00
2013-3-19,42.7,33.5,24.8,27.4,19.5,14.0,78,57,42,30.16,29.86,10,2,10,0.00
2013-3-20,59.9,36.1,16.9,28.0,18.8,9.3,76,53,28,30.07,29.46,9,1,9,0.00
2013-3-21,49.7,40.2,30.6,33.1,19.3,7.6,82,47,22,29.79,29.45,13,3,13,0.00
2013-3-22,34.4,27.5,18.7,26.8,15.1,5.9,85,60,38,30.03,29.77,10,2,10,0.00
2013-3-23,37.4,24.8,13.7,14.6,10.2,6.9,77,56,31,30.14,30.02,10,1,10,0.00
2013-3-24,36.5,24.4,12.6,14.8,9.7,5.0,75,55,31,30.19,30.11,9,1,10,0.00
2013-3-25,52.2,30.3,11.0,21.9,11.1,2.8,74,49,24,30.16,29.90,9,1,9,0.00
2013-3-26,56.3,38.9,23.6,25.7,16.3,7.6,60,42,27,29.91,29.82,10,1,10,0.00
2013-3-27,65.0,43.2,22.3,28.9,19.4,10.8,65,42,21,29.93,29.81,9,1,9,0.00
2013-3-28,68.4,47.6,30.2,32.8,24.2,16.5,62,42,23,29.97,29.87,8,1,8,0.00
2013-3-29,64.8,48.8,38.3,42.7,29.3,22.1,72,48,30,30.00,29.89,15,2,16,0.00
2013-3-30,63.0,50.1,37.8,36.6,27.9,19.7,76,47,21,30.05,29.95,13,3,13,0.00
2013-3-31,61.4,46.8,31.3,30.8,23.8,18.3,63,42,26,30.02,29.88,13,3,13,0.00
2013-4-1,63.7,43.7,24.1,32.0,22.6,14.9,74,47,25,30.05,29.95,12,2,12,0.00
2013-4-2,71.8,48.1,26.3,34.3,23.5,15.3,67,42,19,29.99,29.78,6,2,7,0.00
2013-4-3,69.8,53.6,40.9,33.4,27.0,19.8,55,37,22,30.00,29.79,13,3,13,0.00
2013-4-4,59.8,46.6,32.8,34.1,29.0,22.1,69,52,37,29.99,29.70,8,2,8,0.00
2013-4-5,62.5,52.4,42.1,43.9,35.3,27.8,70,53,36,29.72,29.60,11,3,11,0.00
2013-4-6,68.6,49.5,35.8,38.6,32.0,26.1,70,54,24,29.76,29.64,13,3,13,0.00
2013-4-7,66.1,49.9,35.8,42.9,37.3,32.0,89,64,34,29.71,29.45,11,2,11,0.00
2013-4-8,35.8,25.6,22.1,32.9,21.4,17.5,91,84,77,30.18,29.62,13,3,13,0.00
2013-4-9,34.7,25.7,19.6,21.6,17.1,14.1,85,70,54,30.30,30.18,8,1,8,0.00
2013-4-10,53.3,34.3,16.9,32.8,22.2,10.9,78,63,44,30.18,29.69,11,2,11,0.00
2013-4-11,59.2,46.9,36.7,35.8,30.4,24.4,69,54,33,29.82,29.66,17,5,17,0.00
2013-4-12,55.8,44.4,36.0,33.9,27.8,22.7,78,54,31,29.95,29.61,11,3,11,0.00
2013-4-13,56.5,41.2,37.6,38.4,31.2,22.4,84,68,46,29.61,29.30,12,3,12,0.00
2013-4-14,39.4,34.1,25.2,31.0,23.2,19.0,85,65,47,29.86,29.50,14,5,14,0.00
2013-4-15,37.1,29.5,21.4,24.9,20.7,16.5,81,70,55,30.02,29.85,9,1,9,0.00
2013-4-16,35.1,28.5,23.2,24.3,21.0,17.1,82,74,60,30.16,29.95,7,1,7,0.00
2013-4-17,38.5,27.7,18.7,28.8,21.0,13.2,84,76,57,30.17,30.13,13,1,13,0.00
2013-4-18,56.0,38.7,20.0,31.4,21.8,15.3,85,56,25,30.13,29.94,12,3,12,0.00
2013-4-19,58.3,48.4,35.3,39.2,30.2,23.2,78,51,32,29.95,29.70,11,2,11,0.00
2013-4-20,64.3,49.8,36.2,41.5,34.6,24.8,83,59,23,29.86,29.69,13,3,13,0.00
2013-4-21,47.2,35.1,28.6,34.8,29.0,25.4,89,79,56,30.12,29.85,10,2,10,0.00
2013-4-22,39.2,31.6,25.9,30.6,23.8,18.7,89,74,52,30.31,30.12,7,1,7,0.00
2013-4-23,53.6,36.0,21.1,29.7,20.6,14.5,77,58,22,30.24,29.96,13,3,13,0.00
2013-4-24,60.8,45.7,34.0,32.0,26.5,20.2,81,51,27,30.10,29.78,13,3,13,0.00
2013-4-25,71.3,54.5,36.7,32.3,25.4,21.0,57,36,17,29.86,29.69,15,3,15,0.00
2013-4-26,78.1,58.3,39.2,36.2,29.5,23.6,60,37,18,30.01,29.86,13,3,13,0.00
2013-4-27,79.7,63.3,45.0,36.4,28.5,21.2,52,30,12,29.96,29.70,16,3,16,0.00
2013-4-28,71.3,61.6,52.2,40.3,32.7,24.3,48,34,24,29.89,29.65,10,2,10,0.00
2013-4-29,68.0,51.7,45.0,41.0,32.0,16.9,62,48,24,29.67,29.40,15,4,15,0.00
2013-4-30,49.3,42.1,32.0,33.2,20.1,15.9,65,42,28,30.13,29.66,15,4,16,0.00
2013-5-1,57.6,39.4,27.5,25.8,19.8,15.0,69,48,24,30.43,30.13,7,1,7,0.00
2013-5-2,69.8,50.7,32.4,29.6,23.1,18.3,67,38,17,30.47,30.12,9,3,9,0.00
2013-5-3,69.3,55.1,39.2,42.4,28.4,17.3,76,38,21,30.12,29.99,11,3,11,0.00
2013-5-4,62.8,52.9,44.6,45.8,40.2,31.6,80,64,43,30.14,30.07,10,2,10,0.00
2013-5-5,74.3,54.7,33.8,42.0,33.8,27.0,80,50,24,30.11,29.91,12,1,12,0.00
2013-5-6,81.5,60.2,36.9,42.5,32.9,24.4,66,39,19,29.95,29.77,8,1,8,0.00
2013-5-7,83.9,64.2,41.6,42.6,33.2,27.3,65,36,16,29.86,29.72,10,2,10,0.00
2013-5-8,78.3,62.3,44.3,43.8,38.2,30.6,64,42,28,30.04,29.86,10,2,10,0.00
2013-5-9,79.7,59.9,41.8,47.5,39.1,31.6,72,49,24,30.05,29.95,9,1,9,0.00
2013-5-10,73.8,60.9,46.3,45.8,36.4,23.3,72,44,24,30.27,30.00,16,3,16,0.00
2013-5-11,83.3,61.5,36.7,40.6,31.9,21.5,56,35,21,30.27,29.94,8,1,8,0.00
2013-5-12,93.6,71.9,54.9,45.5,37.5,27.9,48,32,10,29.97,29.80,11,2,11,0.00
2013-5-13,97.0,77.4,59.4,48.6,38.8,30.7,49,29,11,29.90,29.60,13,2,13,0.00
2013-5-14,85.5,70.2,53.8,47.0,36.8,25.5,66,33,16,29.86,29.62,13,2,13,0.00
2013-5-15,81.4,65.8,45.5,41.5,31.6,23.0,43,29,19,29.94,29.73,8,1,8,0.00
2013-5-16,74.9,61.3,53.5,50.8,46.7,41.3,82,60,37,29.80,29.69,9,2,9,0.00
2013-5-17,63.0,56.5,52.4,56.3,51.4,48.0,88,83,71,29.79,29.74,5,0,5,0.00
2013-5-18,60.5,55.5,52.4,55.6,51.9,49.4,91,88,78,29.83,29.78,8,1,8,0.00
2013-5-19,55.1,53.0,51.1,52.4,50.3,48.4,93,91,88,29.94,29.81,9,1,9,0.00
2013-5-20,66.6,56.4,48.8,51.7,45.1,29.8,93,69,26,30.04,29.93,17,3,17,0.00
2013-5-21,72.5,57.1,42.7,47.9,41.6,37.5,87,60,32,30.01,29.82,12,2,12,0.00
2013-5-22,72.0,56.8,45.5,51.8,44.9,39.6,83,66,45,29.88,29.76,14,4,14,0.00
2013-5-23,78.1,61.8,53.5,54.2,48.6,43.8,84,63,41,29.83,29.59,12,3,12,0.00
2013-5-24,76.3,61.7,51.3,51.3,43.0,34.0,86,56,23,29.84,29.62,10,2,10,0.00
2013-5-25,81.0,61.6,43.7,49.2,41.7,35.1,76,51,29,29.83,29.72,9,2,9,0.00
2013-5-26,80.3,62.0,49.7,58.5,49.2,39.5,80,64,42,29.88,29.70,8,1,8,0.00
2013-5-27,70.0,58.0,50.6,55.0,49.3,43.9,86,74,49,29.80,29.68,12,1,12,0.00
2013-5-28,75.4,59.2,46.4,54.5,47.1,42.2,88,67,35,29.69,29.57,9,1,9,0.00
2013-5-29,59.6,54.3,52.6,53.8,50.7,48.5,92,88,68,29.65,29.56,6,1,6,0.00
2013-5-30,54.4,52.0,50.4,50.0,48.3,45.7,92,88,76,29.74,29.54,11,3,11,0.00
2013-5-31,58.0,52.0,48.8,45.9,44.0,41.3,85,75,62,30.11,29.72,12,4,12,0.00
2013-6-1,76.9,61.1,47.0,53.0,46.8,42.9,86,62,35,30.13,29.94,8,1,8,0.00
2013-6-2,80.8,64.8,52.9,56.3,49.5,43.7,76,59,37,29.94,29.56,12,2,12,0.00
2013-6-3,61.6,54.5,47.2,51.3,42.7,37.5,82,65,45,29.96,29.60,14,4,14,0.00
2013-6-4,57.4,49.0,41.9,44.2,39.8,35.7,81,71,57,30.15,29.96,10,2,10,0.00
2013-6-5,74.0,57.7,38.0,49.2,41.8,33.3,88,59,33,30.14,29.91,6,1,6,0.00
2013-6-6,79.9,63.1,46.3,55.0,47.2,39.2,81,58,35,29.95,29.91,9,1,9,0.00
2013-6-7,86.8,68.0,50.8,59.4,51.2,45.0,85,58,29,29.91,29.60,8,1,8,0.00
2013-6-8,81.4,69.3,60.8,51.8,47.4,44.6,61,47,28,29.84,29.65,8,2,8,0.00
2013-6-9,90.5,69.4,51.5,55.9,49.2,42.9,77,52,29,29.85,29.58,8,2,11,0.00
2013-6-10,83.5,67.4,52.6,55.9,49.9,43.8,75,56,33,29.81,29.66,10,2,10,0.00
2013-6-11,81.2,65.7,55.8,65.4,56.5,50.9,87,73,52,29.93,29.68,15,2,15,0.00
2013-6-12,73.3,63.8,52.7,63.0,56.9,48.8,90,79,65,29.98,29.80,15,2,15,0.00
2013-6-13,83.7,67.5,54.7,62.8,56.8,49.8,86,70,47,29.92,29.65,12,3,12,0.00
2013-6-14,73.1,61.5,50.0,50.1,43.7,35.7,84,56,30,29.95,29.82,11,3,11,0.00
2013-6-15,84.6,64.6,45.0,48.0,42.4,37.2,77,49,22,29.98,29.83,7,1,7,0.00
2013-6-16,81.7,64.4,49.1,52.9,46.6,40.7,78,55,33,30.03,29.90,9,1,9,0.00
2013-6-17,85.9,69.6,52.7,58.4,52.6,45.5,80,57,35,30.04,29.88,8,2,8,0.00
2013-6-18,92.3,72.0,58.0,65.6,54.8,47.8,76,57,32,29.88,29.62,9,2,9,0.00
2013-6-19,92.2,70.9,54.4,63.1,52.7,40.1,80,55,36,29.63,29.34,14,2,14,0.00
2013-6-20,80.3,67.9,51.5,40.4,36.3,32.4,49,33,19,29.88,29.63,8,2,8,0.00
2013-6-21,80.1,65.7,56.3,53.6,47.8,40.4,72,53,38,29.94,29.85,9,2,9,0.00
2013-6-22,72.7,60.2,53.6,56.3,50.0,46.8,80,70,50,29.94,29.82,10,1,10,0.00
2013-6-23,84.6,65.7,47.5,53.0,47.9,42.6,84,57,29,29.86,29.65,7,2,7,0.00
2013-6-24,88.4,70.4,52.6,61.6,53.1,44.3,79,56,33,29.65,29.48,8,1,8,0.00
2013-6-25,89.3,74.7,60.5,58.0,51.7,44.4,82,50,23,29.76,29.55,7,1,7,0.00
2013-6-26,86.4,73.5,62.3,58.1,52.2,47.6,77,50,29,29.99,29.75,8,2,8,0.00
2013-6-27,89.8,74.5,59.2,63.3,57.2,52.6,82,58,32,30.11,29.98,8,1,8,0.00
2013-6-28,94.5,76.7,58.0,62.6,56.2,50.2,78,52,27,30.15,30.02,8,1,8,0.00
2013-6-29,92.3,76.6,60.1,64.5,58.3,51.8,78,56,35,30.09,29.91,11,2,11,0.00
2013-6-30,92.2,75.1,60.1,67.6,60.3,54.6,86,63,38,30.04,29.96,8,1,11,0.00
2013-7-1,93.6,79.4,60.8,64.3,57.9,52.8,77,50,31,30.10,30.02,7,1,7,0.00
2013-8-10,85.3,75.1,59.6,64.4,57.0,49.8,88,55,42,29.99,29.88,9,2,9,0.00
2013-8-11,88.6,72.2,58.1,60.5,53.5,46.6,70,53,33,30.00,29.90,7,1,7,0.00
2013-8-12,89.6,73.2,57.1,60.1,53.1,47.3,70,52,30,30.04,29.89,15,2,15,0.00
2013-8-13,86.0,72.4,57.4,61.8,53.0,45.5,73,52,37,30.04,29.95,12,1,12,0.00
2013-8-14,90.5,72.2,58.3,56.4,49.7,45.5,67,47,24,30.00,29.87,8,1,8,0.00
2013-8-15,91.8,73.1,54.2,60.7,50.3,44.6,73,48,21,29.98,29.86,8,1,8,0.00
2013-8-16,91.6,74.4,56.7,62.6,49.2,41.1,66,44,23,29.91,29.78,10,1,10,0.00
2013-8-17,92.5,78.0,63.0,56.4,46.8,38.3,46,34,24,29.93,29.78,7,1,7,0.00
2013-8-18,93.1,77.8,63.0,58.2,51.5,46.5,59,42,27,29.95,29.81,8,2,8,0.00
2013-8-19,98.5,79.1,61.6,53.8,47.5,39.1,56,36,15,29.92,29.74,8,1,8,0.00
2013-8-20,95.0,75.1,60.8,50.8,43.0,37.1,47,33,17,29.89,29.75,4,1,4,0.00
2013-8-21,85.3,71.9,59.6,54.3,47.1,43.3,59,43,28,30.00,29.82,11,1,11,0.00
2013-8-22,90.2,75.0,59.2,61.3,53.9,46.5,68,49,35,30.03,29.81,9,1,9,0.00
2013-8-23,97.2,79.5,65.3,59.2,53.7,47.1,62,43,22,29.83,29.66,10,1,10,0.00
2013-8-24,90.0,75.9,68.4,58.8,53.5,47.9,62,47,29,29.89,29.75,7,1,7,0.00
2013-8-25,94.5,78.3,64.8,57.3,50.5,44.7,64,40,21,29.93,29.80,7,1,7,0.00
2013-8-26,96.7,82.2,69.5,56.3,50.5,43.8,57,35,20,29.89,29.80,9,1,9,0.00
2013-8-27,92.9,79.4,64.3,57.7,51.1,47.0,59,39,26,29.96,29.83,8,1,8,0.00
2013-8-28,97.4,80.6,66.6,59.2,54.2,48.7,58,42,24,29.92,29.77,10,1,10,0.00
2013-8-29,92.3,74.5,61.7,59.7,54.8,50.6,69,52,27,30.03,29.90,10,2,10,0.00
2013-8-30,96.5,76.6,61.6,61.9,52.9,44.1,74,48,19,29.99,29.80,6,1,6,0.00
2013-8-31,85.9,73.0,62.8,51.0,46.5,39.2,58,40,25,30.03,29.86,7,1,7,0.00
2013-9-1,87.5,68.6,50.8,54.6,45.6,38.1,64,46,30,30.02,29.85,8,1,8,0.00
2013-9-2,86.8,70.0,54.5,59.1,50.0,41.3,67,50,31,29.89,29.79,5,1,5,0.00
2013-9-3,93.8,77.3,65.0,62.3,56.3,50.3,69,51,29,29.93,29.84,5,1,5,0.00
2013-9-4,94.1,77.9,66.6,62.1,56.2,48.4,62,48,33,30.01,29.92,8,1,9,0.00
2013-9-5,94.9,75.1,61.7,65.2,58.4,52.8,75,58,33,29.99,29.83,8,1,8,0.00
2013-9-6,90.5,73.5,62.5,68.1,61.4,56.5,82,67,44,29.97,29.84,11,1,11,0.00
2013-9-7,87.8,75.3,63.7,63.7,59.9,54.1,81,61,33,29.98,29.86,22,2,22,0.00
2013-9-8,78.8,70.9,61.2,67.8,60.5,53.9,85,70,62,29.88,29.71,11,2,11,0.00
2013-9-9,79.4,66.2,56.5,55.7,52.5,49.9,85,64,38,29.94,29.83,10,1,10,0.00
2013-9-10,82.4,66.7,54.0,56.7,49.3,44.4,80,57,29,30.03,29.93,5,1,5,0.00
2013-9-11,83.3,66.4,52.2,55.6,49.4,44.4,77,57,31,30.18,30.00,8,1,8,0.00
2013-9-12,85.7,66.2,52.2,58.6,50.9,45.1,79,60,35,30.18,29.96,7,1,7,0.00
2013-9-13,79.6,66.3,56.0,59.9,54.6,49.2,85,67,49,29.96,29.72,7,1,7,0.00
2013-9-14,67.1,62.3,59.4,63.1,58.9,54.9,91,89,84,30.01,29.77,6,1,7,0.00
2013-9-15,77.2,65.1,56.0,63.2,56.2,51.1,87,74,55,30.07,29.89,10,2,10,0.00
2013-9-16,86.8,68.6,54.0,62.5,56.1,49.8,88,67,41,29.89,29.69,7,1,7,0.00
2013-9-17,76.3,64.7,58.0,59.3,55.7,52.0,85,73,50,29.75,29.58,6,1,6,0.00
2013-9-18,70.2,60.1,53.8,55.2,49.2,41.1,84,69,46,29.89,29.55,15,2,15,0.00
2013-9-19,65.2,54.9,48.1,47.7,41.9,37.8,75,62,45,30.07,29.89,6,1,6,0.00
2013-9-20,75.8,56.9,40.1,52.4,42.5,35.1,86,62,36,30.01,29.71,5,1,5,0.00
2013-9-21,85.9,61.2,43.2,57.1,43.5,36.2,80,56,28,29.71,29.48,5,0,5,0.00
2013-9-22,72.7,62.6,54.0,50.3,45.8,41.2,69,55,41,29.57,29.45,5,1,5,0.00
2013-9-23,73.4,60.9,49.5,46.6,41.5,33.8,72,52,24,29.83,29.57,12,2,12,0.00
2013-9-24,76.9,56.3,40.9,51.0,40.7,32.9,76,58,31,29.87,29.56,12,1,12,0.00
2013-9-25,55.4,50.4,48.2,47.1,44.2,39.5,91,80,58,29.65,29.58,6,1,6,0.00
2013-9-26,52.0,46.1,41.8,45.5,40.5,37.9,92,81,64,29.91,29.63,10,1,10,0.00
2013-9-27,54.7,46.9,41.9,43.3,39.7,36.0,87,77,62,29.92,29.79,10,2,10,0.00
2013-9-28,67.7,52.9,40.9,44.3,39.4,35.5,83,63,40,29.82,29.70,10,2,10,0.00
2013-9-29,66.1,55.9,52.0,44.4,40.1,37.7,63,55,45,29.70,29.49,8,1,8,0.00
2013-11-23,25.2,24.4,23.6,12.9,12.3,11.6,61,60,59,30.10,30.04,7,3,7,0.00
2013-11-24,45.7,33.8,24.8,24.9,18.7,12.5,66,54,43,30.04,29.89,15,4,15,0.00
2013-11-25,43.2,32.8,23.8,28.2,22.3,16.6,78,66,52,30.22,30.04,6,1,6,0.00
2013-11-26,43.6,32.2,25.0,30.2,23.9,19.4,82,72,56,30.24,29.92,10,1,10,0.00
2013-11-27,49.9,38.8,24.1,31.3,24.9,17.0,74,58,41,30.07,29.89,8,2,8,0.00
2013-11-28,39.8,28.3,20.5,29.0,21.4,15.0,83,75,63,30.06,29.89,6,1,6,0.00
2013-11-29,56.0,40.6,31.3,34.4,28.1,24.3,79,63,39,29.98,29.87,9,2,10,0.00
2013-11-30,50.2,40.8,35.8,34.4,29.2,24.9,70,63,51,30.03,29.93,5,1,6,0.00
2013-12-1,46.1,40.8,33.3,33.4,30.2,25.0,74,66,58,29.94,29.56,9,2,9,0.00
2013-12-2,44.5,36.3,20.7,37.1,31.8,17.6,92,84,63,29.72,29.43,10,2,10,0.00
2013-12-3,20.7,14.2,8.3,17.6,10.3,4.1,88,84,77,30.04,29.70,9,2,9,0.00
2013-12-4,12.8,7.2,-0.5,6.7,1.4,-8.4,83,77,69,30.10,30.02,7,1,7,0.00
2013-12-5,4.7,-5.9,-13.1,-2.5,-12.6,-20.2,75,72,68,30.21,30.08,4,0,4,0.00
2013-12-6,0.0,-10.0,-15.5,-7.6,-16.9,-22.5,75,71,68,30.32,30.20,7,0,7,0.00
2013-12-7,-7.0,-14.4,-19.8,-13.8,-21.2,-26.6,73,71,70,30.30,29.93,4,0,4,0.00
2013-12-8,7.9,-1.8,-15.5,0.7,-8.4,-22.2,75,73,69,30.02,29.85,7,1,7,0.00
2013-12-9,20.9,11.2,-1.8,11.1,3.5,-8.1,76,71,65,29.99,29.81,13,4,13,0.00
2013-12-10,31.0,22.3,14.0,22.4,15.2,8.7,83,74,66,30.19,29.79,16,3,16,0.00
2013-12-11,28.4,20.0,9.0,17.8,12.2,3.5,82,72,62,30.15,30.03,12,4,12,0.00
2013-12-12,37.6,31.7,24.1,25.0,20.7,15.4,71,64,58,30.04,29.79,11,4,11,0.00
2013-12-13,42.1,35.7,29.7,31.8,26.4,20.3,76,69,63,30.05,29.78,13,2,13,0.00
2013-12-14,41.0,34.9,27.0,29.8,25.4,19.8,76,68,63,30.06,29.90,13,4,13,0.00
2013-12-15,48.8,40.7,33.5,29.9,27.2,24.5,71,59,45,29.90,29.80,15,4,15,0.00
2013-12-16,47.2,38.5,29.2,31.7,26.3,21.8,77,62,49,30.13,29.86,7,1,7,0.00
2013-12-17,46.4,35.1,23.8,32.5,25.7,17.5,83,69,57,30.13,29.67,11,2,11,0.00
2013-12-18,43.2,37.8,27.2,31.8,28.1,22.8,88,69,55,29.73,29.63,10,2,10,0.00
2013-12-19,27.0,10.2,-2.9,22.8,4.0,-9.4,84,76,69,30.07,29.73,13,2,13,0.00
2013-12-20,27.5,18.7,0.4,16.9,10.9,-5.5,79,72,62,29.84,29.46,12,3,12,0.00
2013-12-21,32.0,25.5,16.9,25.7,19.5,12.0,83,78,72,29.89,29.46,4,1,4,0.00
2013-12-22,16.9,10.8,-4.3,12.3,5.4,-10.3,86,79,71,30.18,29.88,5,1,5,0.00
2013-12-23,37.1,16.2,-5.2,32.9,10.7,-11.2,85,78,75,30.17,29.70,11,2,11,0.00
2013-12-24,40.3,36.8,32.6,33.9,26.8,20.4,87,68,53,30.18,29.79,15,5,15,0.00
2013-12-25,36.4,29.8,21.8,24.2,19.2,13.7,72,65,58,30.21,29.95,14,4,14,0.00
2013-12-26,44.3,36.0,29.7,30.9,24.6,19.7,71,63,56,30.06,29.92,10,3,10,0.00
2013-12-27,47.9,40.3,35.3,32.2,28.0,24.8,66,62,54,30.00,29.73,13,4,13,0.00
2013-12-28,41.4,25.6,14.6,29.8,15.1,5.4,71,64,56,30.26,29.71,15,2,15,0.00
2013-12-29,34.0,24.8,13.5,24.1,15.9,7.2,78,69,60,30.22,29.77,11,2,11,0.00
2013-12-30,41.6,35.9,31.7,29.5,25.5,23.0,72,66,60,30.04,29.75,9,2,9,0.00
2013-12-31,39.4,36.4,32.8,31.8,28.0,25.5,87,72,61,29.95,29.73,11,2,11,0.00
2014-1-1,38.0,30.6,24.5,31.9,26.4,20.1,91,84,77,30.19,29.93,7,1,7,0.00
2014-1-2,38.7,29.7,22.1,28.7,23.0,17.7,85,76,64,30.08,29.64,12,4,12,0.00